Location: Dötzum
(52.0808°N, 9.8063°E)
Time: 06:17:38
(UTC+00:00)

USA 308 - Pass Details

Date: 27 May 2022
Orbit: 549 x 558 km, 54.0° (Epoch: 14 June)

Event Time Altitude Azimuth Distance (km) Brightness Sun altitude
Exits shadow 00:36:50 25° 213° (SSW) 1,131 3.8 -14.7°
Maximum altitude 00:38:56 51° 150° (SSE) 710 3.1 -14.5°
Drops below altitude 10° 00:43:07 - 74° (ENE) 1,890 6.1 -14.3°
Sets 00:45:19 0° 70° (ENE) 2,751 7.0 -14.2°
